Temp
26 25 25 25 25 25 26 26 26 26 25 25 24 24 23 22 22 22 22 22 22 22 22 22 22 22 21 21 21 20 20 20 20
24 25 26 25 25 25 26 26 27 26 26 25 24 24 24 23 22 22 22 21 21 21 21 21 22 22 21 21 21 20 20 21 21
27 26 25 25 26 26 26 26 26 27 26 26 25 25 24 23 23 22 22 22 22 21 22 22 21 22 22 21 21 21 21 21 21
24 25 26 25 26 25 24 24 25 26 26 26 25 25 25 24 23 23 22 22 22 21 21 21 21 21 21 21 21 21 21 21 21
25 24 25 25 24 24 24 24 24 25 26 26 26 26 26 25 24 23 23 22 22 22 22 21 21 21 21 21 22 22 21 21 22
25 26 25 26 25 25 24 24 25 25 26 27 26 25 25 25 25 24 24 23 23 23 23 22 21 21 21 21 22 22 22 22 22
22 25 25 25 26 26 25 25 26 26 27 27 27 27 26 25 25 25 25 24 24 23 23 23 22 22 22 22 22 21 22 22 22
18 21 25 26 26 26 25 24 25 26 26 28 29 27 26 27 27 25 25 25 24 24 23 23 23 23 22 22 22 22 22 22 22
16 20 21 22 24 26 26 25 25 26 26 27 28 28 29 28 27 27 25 25 25 24 24 24 23 23 23 23 23 24 23 23 23
15 17 20 21 22 24 25 25 26 26 26 26 27 28 29 29 28 28 27 26 25 25 25 24 24 24 24 24 25 24 24 24 23
16 16 18 20 23 24 25 26 26 26 26 26 27 26 27 27 28 28 27 27 26 25 25 25 24 24 25 25 25 25 25 25 24
17 16 17 18 21 22 23 23 25 26 23 23 24 25 25 25 25 25 24 25 25 26 25 25 25 24 24 25 25 25 25 24 23
17 16 17 18 19 20 21 20 21 22 22 23 22 21 22 22 23 23 23 23 23 24 24 25 25 25 25 24 25 25 24 24 23
16 17 16 18 19 20 20 20 20 20 20 20 20 19 21 21 21 22 22 22 22 23 23 23 23 24 24 24 25 25 24 23 22
16 17 17 17 18 19 19 20 20 21 21 21 21 21 21 20 21 22 22 23 23 23 24 24 23 23 23 24 24 24 23 22 22
14 15 17 16 17 18 19 20 20 21 21 22 22 21 23 24 24 24 24 25 25 25 25 25 24 23 23 23 22 22 22 21 20
13 15 15 16 17 18 19 20 20 21 21 22 23 24 24 23 23 24 25 24 23 23 23 23 23 22 21 21 19 20 21 21 21
12 13 15 15 16 17 18 19 20 21 21 22 22 23 23 23 23 23 22 21 21 21 20 20 20 20 19 19 20 20 20 20 20
12 13 14 14 15 17 18 19 20 21 22 22 23 23 22 22 21 20 20 20 20 19 19 19 20 19 19 18 19 19 19 18 18
12 12 13 14 14 16 17 18 18 19 20 20 20 20 21 20 19 18 18 17 16 16 17 19 18 17 17 19 17 17 16 16 15
Height
1431 1436 1441 1445 1450 1456 1459 1464 1472 1478 1484 1491 1496 1501 1506 1510 1515 1519 1522 1527 1531 1535 1537 1540 1543 1545 1547 1548 1550 1551 1552 1553 1554
1438 1438 1439 1441 1445 1448 1453 1459 1463 1469 1477 1485 1491 1496 1501 1505 1510 1514 1518 1522 1527 1531 1534 1537 1539 1541 1543 1545 1546 1547 1549 1550 1551
1434 1436 1438 1440 1440 1442 1446 1451 1459 1465 1471 1478 1485 1491 1495 1500 1505 1510 1514 1519 1522 1526 1530 1533 1535 1537 1539 1541 1542 1543 1545 1547 1548
1438 1434 1431 1432 1435 1439 1445 1448 1455 1463 1468 1474 1480 1485 1490 1494 1499 1504 1509 1513 1517 1521 1525 1528 1530 1533 1536 1537 1539 1540 1541 1543 1544
1439 1437 1432 1426 1430 1437 1441 1447 1449 1455 1463 1469 1476 1480 1484 1489 1494 1499 1503 1507 1511 1515 1518 1522 1525 1529 1531 1533 1535 1536 1537 1538 1540
1440 1437 1435 1432 1435 1438 1440 1442 1446 1451 1456 1461 1469 1475 1480 1484 1489 1493 1498 1502 1506 1509 1512 1515 1520 1523 1526 1527 1529 1531 1533 1534 1535
1443 1439 1439 1438 1436 1437 1438 1440 1440 1442 1447 1454 1459 1466 1472 1477 1483 1487 1492 1497 1500 1503 1507 1510 1513 1517 1520 1522 1524 1526 1527 1529 1530
1440 1441 1439 1439 1439 1438 1438 1439 1439 1440 1445 1447 1453 1458 1463 1468 1475 1481 1486 1490 1495 1498 1501 1504 1507 1510 1513 1515 1517 1519 1521 1523 1524
1437 1429 1434 1441 1440 1437 1436 1436 1437 1438 1439 1442 1446 1452 1458 1463 1468 1472 1478 1483 1488 1492 1496 1498 1501 1503 1505 1507 1509 1511 1514 1516 1518
1445 1433 1429 1430 1433 1436 1435 1433 1431 1431 1436 1439 1442 1448 1453 1458 1463 1467 1472 1476 1481 1486 1489 1493 1494 1496 1498 1498 1501 1504 1506 1509 1511
1446 1437 1428 1429 1427 1426 1425 1425 1426 1427 1432 1436 1439 1444 1448 1453 1458 1462 1466 1471 1475 1479 1483 1486 1488 1490 1491 1492 1493 1496 1498 1501 1502
1454 1447 1439 1433 1428 1426 1424 1426 1425 1423 1427 1433 1437 1441 1445 1449 1453 1457 1461 1465 1469 1474 1477 1480 1481 1483 1484 1485 1486 1488 1491 1493 1493
1456 1453 1448 1443 1435 1432 1430 1430 1427 1427 1431 1430 1435 1440 1441 1445 1448 1451 1456 1460 1463 1467 1470 1472 1474 1475 1476 1476 1476 1479 1481 1483 1484
1459 1456 1452 1448 1445 1438 1437 1437 1434 1433 1435 1434 1436 1442 1438 1447 1449 1444 1449 1454 1457 1460 1462 1465 1466 1466 1468 1468 1469 1469 1470 1471 1471
1456 1454 1452 1449 1445 1444 1445 1441 1442 1441 1442 1440 1434 1445 1451 1450 1440 1438 1447 1452 1454 1455 1456 1457 1459 1460 1460 1460 1460 1460 1461 1462 1463
1453 1452 1450 1448 1447 1445 1445 1446 1445 1444 1444 1444 1448 1448 1440 1435 1433 1439 1444 1447 1450 1450 1450 1450 1450 1450 1450 1451 1452 1451 1451 1452 1453
1447 1447 1448 1448 1447 1444 1442 1441 1442 1442 1441 1442 1439 1435 1438 1439 1438 1438 1440 1444 1445 1444 1444 1443 1443 1443 1443 1444 1444 1445 1446 1445 1445
1441 1442 1443 1443 1444 1443 1442 1441 1441 1440 1439 1437 1438 1438 1438 1437 1437 1437 1438 1440 1442 1439 1438 1437 1435 1436 1436 1437 1437 1439 1439 1440 1439
1434 1436 1438 1438 1439 1439 1439 1438 1437 1436 1436 1436 1434 1432 1434 1433 1432 1434 1436 1435 1434 1435 1434 1430 1429 1430 1431 1431 1431 1432 1432 1432 1434
1426 1431 1433 1434 1436 1438 1438 1436 1434 1433 1432 1431 1430 1431 1430 1429 1429 1430 1432 1432 1432 1432 1428 1426 1426 1426 1427 1426 1428 1427 1427 1429 1432
Wind_Speed
30 36 39 40 45 48 48 46 43 41 39 37 38 38 37 33 30 28 26 30 29 25 22 20 20 16 16 14 13 13 13 12 11
5 22 33 37 41 45 48 47 45 44 41 38 38 36 36 36 33 30 29 28 30 28 22 21 15 19 20 18 15 15 15 15 14
8 10 20 33 40 43 47 49 47 45 40 37 34 34 37 37 34 30 28 28 32 32 28 25 22 20 21 18 16 15 14 14 14
12 16 18 25 38 38 40 43 44 45 43 38 36 34 34 37 34 32 28 30 31 34 30 29 28 22 18 19 17 15 16 17 18
13 11 13 13 32 35 36 38 41 42 42 41 38 30 31 30 31 31 30 29 31 31 31 31 30 27 24 23 22 21 21 21 20
12 10 4 4 19 27 34 38 38 38 40 40 40 39 37 33 32 33 31 28 29 30 31 31 31 32 31 28 26 25 25 23 21
21 13 8 9 17 20 30 37 37 36 32 31 34 37 38 36 35 33 31 29 28 28 30 33 32 32 34 33 31 29 27 26 25
25 16 18 20 10 9 30 36 39 33 34 31 27 31 31 27 31 36 35 34 32 29 28 31 34 34 34 34 33 33 33 31 30
36 37 28 16 8 5 9 26 38 35 33 29 29 29 24 21 23 28 33 35 35 34 32 31 31 34 37 37 37 36 35 34 34
34 41 36 26 20 12 10 9 20 30 33 29 29 28 24 26 27 22 22 26 32 33 31 31 32 33 35 37 37 36 36 36 36
40 38 32 19 15 16 13 13 10 19 30 28 24 28 26 28 29 31 28 25 25 28 28 29 29 30 32 33 34 33 34 35 36
34 29 21 19 12 6 9 6 4 6 17 21 23 24 24 26 28 28 27 27 27 26 27 28 29 30 31 32 32 32 32 33 34
28 21 19 20 19 19 16 18 9 4 9 10 12 14 16 19 21 19 20 21 23 24 26 29 30 32 34 36 36 36 36 35 36
21 19 14 11 14 19 19 17 17 15 13 11 10 8 5 11 14 13 15 18 20 21 24 26 29 31 32 34 35 37 37 36 35
21 17 14 10 7 9 11 14 14 12 10 10 9 1 5 8 8 5 8 12 16 18 21 24 27 30 33 35 36 37 35 34 33
26 19 13 12 12 11 16 14 15 12 11 11 9 5 5 8 9 11 14 18 22 25 25 27 29 30 31 32 30 28 26 24 26
30 25 16 12 13 10 11 12 11 12 14 13 16 16 15 14 11 12 15 19 20 20 20 23 25 26 27 27 25 22 19 18 22
29 26 21 14 13 11 10 13 11 10 14 16 17 18 18 17 16 17 18 18 19 18 18 18 19 17 17 20 22 22 19 17 17
25 23 17 16 16 12 8 8 11 14 15 15 19 22 23 21 19 17 17 19 18 16 15 14 15 16 16 16 18 18 19 15 11
21 20 18 17 16 12 7 6 11 14 15 16 17 18 22 21 18 16 16 14 12 12 13 10 9 8 14 13 14 13 11 16 18
Wind_Direction
219 212 212 215 220 224 221 220 222 221 222 220 219 221 223 225 226 226 228 225 221 228 231 230 236 236 236 242 243 236 232 244 249
288 225 223 221 221 224 225 223 220 221 222 221 220 223 226 227 228 227 226 223 223 228 228 231 235 234 244 245 242 236 237 243 248
301 257 237 229 232 227 227 228 224 219 222 221 222 227 229 230 230 230 228 225 224 226 231 232 239 242 244 236 229 227 234 244 253
306 306 290 247 231 224 221 220 221 221 221 222 223 227 231 232 233 233 233 230 227 229 233 233 237 241 235 232 232 236 241 251 259
298 313 308 305 212 218 211 220 219 221 221 223 225 225 232 236 240 238 238 236 233 231 234 235 238 241 242 240 244 243 244 252 261
300 281 293 214 210 220 220 221 224 222 221 223 226 230 235 235 240 242 242 242 239 235 235 237 238 241 244 245 246 246 248 253 262
323 266 255 209 210 220 230 227 222 217 208 216 225 231 235 242 242 242 244 244 244 241 238 239 239 239 242 245 249 250 251 255 258
335 309 270 258 253 250 230 224 224 218 219 206 214 227 233 243 249 246 243 244 244 246 245 244 244 244 245 247 249 250 251 252 254
337 324 312 303 277 309 263 233 229 230 217 212 212 218 224 234 235 244 246 245 246 249 249 250 250 250 251 251 252 254 255 256 256
342 333 320 317 308 293 301 262 230 234 234 224 221 222 222 228 237 234 241 243 245 249 253 255 255 255 253 254 256 257 258 259 258
355 351 347 348 323 309 305 297 268 229 232 236 237 234 231 231 234 236 241 246 249 252 254 255 258 259 258 258 260 262 262 263 263
358 5 17 36 45 16 342 334 298 241 214 231 234 242 246 247 248 249 249 250 251 253 256 259 260 263 265 264 267 268 269 270 269
350 359 24 41 62 68 66 52 47 95 169 208 207 227 236 240 242 246 251 254 256 258 259 260 262 263 264 268 268 268 270 271 271
332 340 343 20 34 56 58 59 66 83 88 98 114 162 200 226 235 226 244 252 256 259 262 264 265 266 267 267 268 271 274 276 276
311 325 321 322 345 2 29 39 34 39 47 43 57 77 220 194 208 188 245 259 260 263 265 267 268 270 273 274 275 275 274 275 272
295 300 305 302 300 294 299 324 335 346 358 4 341 309 295 298 298 272 266 266 266 264 264 265 268 270 271 272 272 273 276 275 272
286 283 288 271 274 281 291 299 320 328 317 321 332 339 321 309 291 283 284 280 276 273 269 267 268 274 280 279 275 280 278 273 268
277 283 273 273 251 261 267 271 282 307 316 315 309 310 312 304 300 297 294 290 283 278 273 270 273 277 270 264 267 272 269 271 259
264 278 266 268 230 235 257 290 305 305 300 295 293 296 293 296 298 294 289 292 290 279 268 271 272 270 268 265 271 269 276 262 252
251 258 262 250 221 227 245 317 326 314 308 306 302 290 280 275 281 289 284 279 274 281 286 283 292 278 264 257 264 268 196 155 142